DELTA 1 DEB, 7037

Orbit data source: Space-Track

DELTA 1 DEB, 7037 is space debris in LEO originally from a launch on Tue, 06 Nov 1973 UTC launched from the Air Force Western Test Range (AFWTR). Debris objects in space refer to the collection of defunct objects orbiting the Earth. Examples of debris include non-operational satellites, rocket bodies, and fragments generated from explosions, collisions, or faulty payload assembly.

Loading next visibility...
Identifier
7037, 1973-086AD
Orbit
LEO
Country
Flag of USUS
Related business
Manufacturer
Unknown
Mission
Spacecraft
Bus & Motor
Unknown
Mass
Unknown
Launch date (UTC)
1973-11-06 (53 years ago)
Launch vehicle
Unknown
Launch site
Air Force Western Test Range (AFWTR)
Object type
Payload
Rocket body
Debris
Shape & HBR
Unknown shape, 0.7 m
Radar Cross Section
Medium (>0.1 m² and <1 m²)

Expand to show TLE details & history
Last TLE update: 6 hours ago

TLE from 6 hours ago
0 DELTA 1 DEB
1 07037U 73086AD  26237.57592145  .00000008  00000-0  56221-3 0  9996
2 07037 101.9960 272.7916 0323068  66.1111  85.5675 11.86624557286239
Epoch: 2026-08-25T13:49Z
TLE epoch observation values (Epoch: 2026-08-25T13:49:19.613Z)
Latitude
24.07307°
Longitude
-82.96024°
Altitude
1,732.013 km
Speed
7.019 km/s
True Right ascension
06h 32m 51s
True Declination
23° 57' 38"
Sunlit
Object was in daylight at epoch
Visualization orbit readout
Latitude
Unknown
Longitude
Unknown
Altitude
Unknown
Speed
Unknown
Apparent Right ascension
Unknown
Apparent Declination
Unknown
Sunlit
N/A
Visualization observer readout
Local Sidereal Time
10:35:56
Azimuth
Unknown
Elevation
Unknown
Doppler factor
Unknown
Orbital elements
Apogee altitude
2,001.185 km
Perigee altitude
1,476.711 km
Semi-major axis
8,117.085 km
Eccentricity
0.03231
Inclination
101.996°
RAAN
272.7916°
Arg. of periapsis
66.1111°
True anomaly
89.26749°
Mean anomaly
85.5675°
Eccentric anomaly
87.41666°
Mean motion
2.96786 °/min
Orbital period
121.3 mins
BSTAR
0.00056221
Loading maneuver chart data...
Computing Atmospheric mass density...
Loading historical data...
Loading historical data...
Loading historical data...
Loading historical data...
Loading historical data...
Loading historical data...
Loading historical data...

Documentation

Showing up to 5 results
|